Location: Hiram
(41.3130°N, 81.1440°W)
Time: 05:08:30
(UTC-04:00)

Amateur Radio Satellites - All Passes

Search period start: 27 April 2015 04:38
Search period end: 28 April 2015 04:38
Location: Hiram, 41.3130°N, 81.1440°W

Satellite Date Start Highest point End Downlink Frequencies (MHz)
Time Altitude Azimuth
DANDE 27 Apr 04:43:02 04:50:35 67° 78° (ENE) 04:59:08 436.750
JAS-2 27 Apr 04:43:20 04:48:42 30° 92° (E) 04:53:39 435.910
Gurwin Techsat 1B 27 Apr 04:50:51 04:55:43 37° 291° (WNW) 05:00:32 435.225
HORYU 2 27 Apr 04:53:06 04:57:32 54° 100° (E) 05:01:55 437.375
MOZHAYETS 4 27 Apr 04:54:08 04:58:37 50° 73° (ENE) 05:03:08
STARS 27 Apr 05:11:17 05:12:52 11° 272° (W) 05:14:11 437.465
M-CUBED/EXP-1 PRIME 27 Apr 05:19:52 05:22:44 16° 59° (ENE) 05:25:46 437.505
CUSAT 1 27 Apr 05:37:06 05:44:30 48° 267° (W) 05:52:21 437.405
Cosmos 2499 27 Apr 05:42:15 05:49:33 43° 73° (ENE) 05:56:26 435.465 / 435.565
AIST 2 27 Apr 05:46:37 05:49:14 15° 320° (NW) 05:51:44 435.215
AO-7 27 Apr 05:57:57 06:06:20 87° 288° (WNW) 06:14:41 29.400- 29.500
AUBIESAT-1 27 Apr 05:59:13 06:03:27 33° 65° (ENE) 06:07:43 437.475
GONETS M04 27 Apr 05:59:32 06:06:58 30° 276° (W) 06:14:06
DANDE 27 Apr 06:27:08 06:33:33 28° 271° (W) 06:40:18 436.750
JAS-2 27 Apr 06:28:09 06:33:59 39° 293° (WNW) 06:39:08 435.910
PRISM 27 Apr 06:28:35 06:31:52 23° 68° (ENE) 06:35:12 437.425
HORYU 2 27 Apr 06:31:03 06:33:46 16° 296° (WNW) 06:36:21 437.375
MOZHAYETS 4 27 Apr 06:33:13 06:36:11 16° 270° (W) 06:38:59
CUBESAT XI-V 27 Apr 06:35:04 06:39:27 45° 72° (ENE) 06:43:53 437.345
M-CUBED/EXP-1 PRIME 27 Apr 06:52:18 06:57:06 68° 255° (WSW) 07:01:55 437.505
CUTE-I 27 Apr 07:13:25 07:18:17 36° 97° (E) 07:23:12 437.470
STRAND 1 27 Apr 07:19:03 07:24:05 65° 74° (ENE) 07:29:09 437.568
Cubesat XI-IV 27 Apr 07:23:24 07:28:30 46° 99° (E) 07:33:36 437.490
O/OREOS (USA 219) 27 Apr 07:30:01 07:33:05 18° 54° (NE) 07:36:14 437.305
AUBIESAT-1 27 Apr 07:33:58 07:38:11 30° 260° (W) 07:42:21 437.475
Cosmos 2499 27 Apr 07:35:44 07:42:33 35° 274° (W) 07:48:52 435.465 / 435.565
AO-7 27 Apr 07:52:15 07:58:09 21° 307° (NW) 08:03:44 29.400- 29.500
PRISM 27 Apr 08:03:34 08:07:14 29° 264° (W) 08:10:50 437.425
CUBESAT XI-V 27 Apr 08:13:59 08:17:11 18° 269° (W) 08:20:13 437.345
BRITE-PL 27 Apr 08:20:47 08:23:19 14° 88° (E) 08:26:13 437.365/2234.400
PCSat 27 Apr 08:43:24 08:48:46 72° 117° (ESE) 08:54:12 145.827
CUTE-I 27 Apr 08:53:43 08:58:16 29° 293° (WNW) 09:02:44 437.470
STRAND 1 27 Apr 09:00:54 09:03:50 15° 271° (W) 09:06:32 437.568
Cubesat XI-IV 27 Apr 09:04:08 09:08:21 24° 295° (WNW) 09:12:27 437.490
O/OREOS (USA 219) 27 Apr 09:08:30 09:12:50 48° 252° (WSW) 09:17:07 437.305
COMPASS 1 27 Apr 09:13:30 09:13:54 10° 87° (E) 09:14:34 437.405
GOMX 1 27 Apr 09:36:03 09:41:04 48° 98° (E) 09:46:19 467.674
Cosmos 2491 27 Apr 09:38:57 09:46:59 38° 70° (ENE) 09:55:08 435.465 / 435.565
SEEDS 27 Apr 09:39:02 09:42:36 26° 94° (E) 09:46:11 437.485
HO-68 27 Apr 09:44:04 09:50:53 45° 98° (E) 09:57:42 435.675
CANX-2 27 Apr 09:49:59 09:54:07 47° 98° (E) 09:58:14 2200.000
AAUSAT CUBESAT 2 27 Apr 09:52:04 09:55:32 25° 94° (E) 09:59:01 437.432
BRITE-PL 27 Apr 09:57:11 10:02:20 75° 284° (WNW) 10:07:50 437.365/2234.400
CUTE 1.7 + AOD 2 27 Apr 09:58:49 10:03:01 53° 99° (E) 10:07:10 437.475
DOVE 4 27 Apr 10:04:19 10:09:25 61° 99° (E) 10:14:41 437.250
TIGRISAT 27 Apr 10:22:28 10:26:10 26° 68° (ENE) 10:30:03 435.000
CUBEBUG 2 27 Apr 10:24:13 10:28:10 26° 93° (E) 10:32:10 437.445
UNISAT 6 27 Apr 10:27:20 10:31:15 30° 69° (ENE) 10:35:19 437.425
PCSat 27 Apr 10:28:48 10:32:48 20° 317° (NW) 10:36:42 145.827
CINEMA 3 27 Apr 10:36:00 10:40:59 65° 100° (E) 10:46:00 145.822/145.860
DUCHIFAT 1 27 Apr 10:37:34 10:40:13 17° 66° (ENE) 10:43:01 145.980
POLYITAN 1 27 Apr 10:38:33 10:41:23 18° 66° (ENE) 10:44:22 437.675
YUBILEINY 27 Apr 10:43:56 10:51:52 41° 88° (E) 10:59:59 435.215
COMPASS 1 27 Apr 10:45:56 10:50:07 65° 285° (WNW) 10:54:16 437.405
UWE-3 27 Apr 10:46:25 10:50:43 35° 96° (E) 10:55:01 435.000/436.395/437.385
DELFI C3 27 Apr 10:51:08 10:54:56 39° 97° (E) 10:58:43 145.870
FUNcube-1 27 Apr 10:51:24 10:55:29 31° 95° (E) 10:59:32 145.935
UKube-1 27 Apr 10:54:45 10:57:35 17° 92° (E) 11:00:34 .
QB50P1 27 Apr 10:55:17 10:58:47 26° 69° (ENE) 11:02:22 145.935-145.965
HUMSAT D 27 Apr 10:59:09 11:02:00 17° 91° (E) 11:04:58 437.325/437.525
ANTELSAT 27 Apr 11:08:43 11:13:16 80° 74° (ENE) 11:17:57 437.575/2403.000
BEESAT 3 27 Apr 11:12:31 11:16:11 31° 49° (NE) 11:19:51 437.485
Oscar 11 27 Apr 11:12:31 11:16:54 86° 281° (WNW) 11:21:13 145.826/435.025
SEEDS 27 Apr 11:14:47 11:18:22 26° 290° (WNW) 11:21:51 437.485
GOMX 1 27 Apr 11:14:52 11:18:56 23° 293° (WNW) 11:23:00 467.674
BEESAT 2 27 Apr 11:16:16 11:19:52 29° 48° (NE) 11:23:29 435.950
ZACube-1 27 Apr 11:17:12 11:21:46 60° 99° (E) 11:26:18 437.345
QB50P2 27 Apr 11:21:20 11:25:27 53° 73° (ENE) 11:29:36 145.880/145.840
CANX-2 27 Apr 11:27:02 11:29:43 16° 294° (WNW) 11:32:13 2200.000
AAUSAT CUBESAT 2 27 Apr 11:27:35 11:31:07 26° 290° (WNW) 11:34:34 437.432
VELOX 1 27 Apr 11:28:04 11:31:19 20° 93° (E) 11:34:42 145.980
50 SAT 27 Apr 11:30:15 11:33:24 22° 93° (E) 11:36:35 437.505
HO-68 27 Apr 11:32:03 11:38:30 36° 296° (WNW) 11:44:50 435.675
Cosmos 2491 27 Apr 11:35:43 11:44:05 48° 271° (W) 11:52:20 435.465 / 435.565
ISS 27 Apr 11:36:07 11:39:01 31° 137° (SE) 11:41:58 145.825
CUTE 1.7 + AOD 2 27 Apr 11:36:10 11:38:31 14° 295° (WNW) 11:40:42 437.475
NANOSAT C BR1 27 Apr 11:38:05 11:42:17 80° 76° (ENE) 11:46:32 145.865
BRITE-PL 27 Apr 11:39:35 11:40:13 10° 298° (WNW) 11:40:32 437.365/2234.400
POPSAT HIP 1 27 Apr 11:42:07 11:46:19 89° 90° (E) 11:50:35 437.405
DOVE 4 27 Apr 11:43:15 11:46:47 18° 295° (WNW) 11:50:11 437.250
SO-50 27 Apr 11:45:44 11:50:15 55° 118° (ESE) 11:54:58 436.795
AISAT 27 Apr 11:46:07 11:50:08 33° 96° (E) 11:54:12 437.250
DX 1 27 Apr 11:49:08 11:53:30 75° 102° (ESE) 11:57:52 434.975-435.025
AIST 1 27 Apr 11:52:26 11:56:21 35° 76° (ENE) 12:00:18
BUGSAT 1 27 Apr 11:57:16 12:01:17 89° 244° (WSW) 12:05:21 437.445
TIGRISAT 27 Apr 11:58:45 12:02:49 32° 265° (W) 12:06:56 435.000
CUBEBUG 2 27 Apr 12:00:35 12:04:54 34° 290° (WNW) 12:09:08 437.445
UNISAT 6 27 Apr 12:04:07 12:08:01 27° 266° (W) 12:11:58 437.425
DUCHIFAT 1 27 Apr 12:11:45 12:15:45 42° 262° (W) 12:19:46 145.980
POLYITAN 1 27 Apr 12:13:04 12:17:03 39° 262° (W) 12:21:03 437.675
Cosmos 2504 27 Apr 12:14:27 12:17:59 14° 77° (ENE) 12:22:11 435.465 / 435.565
CINEMA 3 27 Apr 12:14:36 12:17:43 16° 296° (WNW) 12:20:40 145.822/145.860
UWE-3 27 Apr 12:23:15 12:27:05 24° 292° (WNW) 12:30:47 435.000/436.395/437.385
DELFI C3 27 Apr 12:27:10 12:29:48 17° 293° (WNW) 12:32:17 145.870
AIST 2 27 Apr 12:27:43 12:31:51 48° 53° (NE) 12:35:55 435.215
FUNcube-1 27 Apr 12:27:49 12:31:42 27° 291° (WNW) 12:35:28 145.935
UKube-1 27 Apr 12:29:52 12:33:58 41° 289° (WNW) 12:38:01 .
QB50P1 27 Apr 12:31:04 12:34:37 26° 265° (W) 12:38:09 145.935-145.965
ESTCUBE 1 27 Apr 12:31:10 12:35:35 54° 100° (E) 12:39:59 437.505/2401.250
HUMSAT D 27 Apr 12:33:53 12:37:59 41° 288° (WNW) 12:42:01 437.325/437.525
YUBILEINY 27 Apr 12:40:19 12:48:41 45° 287° (WNW) 12:56:59 435.215
SPROUT 27 Apr 12:41:58 12:44:44 17° 91° (E) 12:47:37 437.525
BEESAT 3 27 Apr 12:50:42 12:54:07 25° 246° (WSW) 12:57:24 437.485
BEESAT 2 27 Apr 12:54:24 12:57:57 28° 246° (WSW) 13:01:23 435.950
ZACube-1 27 Apr 12:54:59 12:57:41 15° 296° (WNW) 13:00:11 437.345
QB50P2 27 Apr 12:59:40 13:01:45 13° 271° (W) 13:03:37 145.880/145.840
CUBEBUG 1 27 Apr 13:03:34 13:07:55 75° 285° (WNW) 13:12:17 437.445
VELOX 1 27 Apr 13:03:56 13:08:02 37° 289° (WNW) 13:12:07 145.980
50 SAT 27 Apr 13:04:43 13:08:13 28° 290° (WNW) 13:11:38 437.505
ISS 27 Apr 13:12:22 13:15:21 33° 334° (NNW) 13:18:22 145.825
Oscar 19 27 Apr 13:12:50 13:17:13 30° 67° (ENE) 13:21:44 437.125/150
RS-15 27 Apr 13:22:33 13:30:24 25° 104° (ESE) 13:38:50 29.354- 29.394
AISAT 27 Apr 13:23:00 13:26:36 24° 292° (WNW) 13:30:07 437.250
SO-50 27 Apr 13:27:25 13:31:10 22° 318° (NW) 13:34:55 436.795
DX 1 27 Apr 13:27:50 13:29:13 11° 298° (WNW) 13:30:23 434.975-435.025
AIST 1 27 Apr 13:30:48 13:33:47 18° 272° (W) 13:36:36
TISAT 1 27 Apr 13:38:57 13:43:08 55° 100° (E) 13:47:19 437.305
ITAMSAT 1 27 Apr 13:52:20 13:56:13 23° 65° (ENE) 14:00:14 435.822/435.867
Cosmos 2504 27 Apr 14:01:20 14:10:09 72° 94° (E) 14:18:51 435.465 / 435.565
AIST 2 27 Apr 14:07:22 14:10:05 16° 249° (WSW) 14:12:38 435.215
ESTCUBE 1 27 Apr 14:09:22 14:12:04 15° 295° (WNW) 14:14:36 437.505/2401.250
SPROUT 27 Apr 14:16:57 14:21:04 42° 288° (WNW) 14:25:09 437.525
Gurwin Techsat 1B 27 Apr 14:32:08 14:37:07 44° 70° (ENE) 14:42:11 435.225
ITUPSAT 1 27 Apr 14:38:40 14:43:03 36° 97° (E) 14:47:27 437.325
ISS 27 Apr 14:50:34 14:52:27 14° 353° (N) 14:54:19 145.825
Oscar 19 27 Apr 14:51:51 14:56:31 34° 264° (W) 15:01:11 437.125/150
JAS-2 27 Apr 14:55:15 15:00:21 20° 60° (ENE) 15:05:36 435.910
AO-7 27 Apr 15:06:04 15:12:47 30° 57° (ENE) 15:19:42 29.400- 29.500
BEESAT 27 Apr 15:07:59 15:12:46 75° 102° (ESE) 15:17:30 436.000
SWISSCUBE 27 Apr 15:10:50 15:15:38 87° 106° (ESE) 15:20:23 437.505
GONETS M04 27 Apr 15:13:22 15:15:40 12° 75° (ENE) 15:18:43
TISAT 1 27 Apr 15:16:15 15:18:31 14° 295° (WNW) 15:20:37 437.305
STARS 27 Apr 15:23:23 15:24:59 12° 88° (E) 15:26:51 437.465
ITAMSAT 1 27 Apr 15:30:29 15:35:27 46° 261° (W) 15:40:27 435.822/435.867
RS-15 27 Apr 15:30:40 15:41:36 83° 305° (NW) 15:52:48 29.354- 29.394
PCSat 27 Apr 15:50:13 15:51:56 12° 35° (NE) 15:53:52 145.827
HORYU 2 27 Apr 15:51:16 15:55:36 50° 72° (ENE) 15:59:59 437.375
Cosmos 2504 27 Apr 15:57:09 16:04:26 26° 295° (WNW) 16:11:20 435.465 / 435.565
VERMONT LUNAR 27 Apr 16:06:30 16:09:04 20° 152° (SSE) 16:11:39 437.305
KKS-1 27 Apr 16:07:49 16:12:16 59° 101° (E) 16:16:42 437.445
Gurwin Techsat 1B 27 Apr 16:13:06 16:17:21 23° 268° (W) 16:21:29 435.225
ITUPSAT 1 27 Apr 16:16:56 16:20:47 24° 293° (WNW) 16:24:32 437.325
ISS 27 Apr 16:27:34 16:29:46 17° 13° (NNE) 16:32:00 145.825
JAS-2 27 Apr 16:36:42 16:44:36 88° 76° (ENE) 16:52:12 435.910
BEESAT 27 Apr 16:47:51 16:50:03 13° 298° (WNW) 16:52:03 436.000
SWISSCUBE 27 Apr 16:51:24 16:52:52 11° 299° (WNW) 16:54:04 437.505
MOZHAYETS 4 27 Apr 16:51:29 16:53:00 12° 87° (E) 16:54:47
PHONESAT 2.4 27 Apr 16:55:21 16:57:53 19° 151° (SSE) 17:00:28 2401.200-2431.200
AO-7 27 Apr 16:56:50 17:05:04 67° 256° (WSW) 17:13:20 29.400- 29.500
STARS 27 Apr 16:57:32 17:01:57 63° 286° (WNW) 17:06:20 437.465
GONETS M04 27 Apr 17:02:23 17:11:01 68° 93° (E) 17:19:47
CUSAT 1 27 Apr 17:04:43 17:07:46 23° 86° (E) 17:11:39 437.405
Cubesat XI-IV 27 Apr 17:10:34 17:11:26 11° 58° (ENE) 17:12:37 437.490
HORYU 2 27 Apr 17:29:51 17:32:36 15° 270° (W) 17:35:11 437.375
PCSat 27 Apr 17:31:19 17:36:40 57° 57° (ENE) 17:42:00 145.827
VERMONT LUNAR 27 Apr 17:42:51 17:46:11 61° 168° (SSE) 17:49:32 437.305
KKS-1 27 Apr 17:45:58 17:48:28 14° 296° (WNW) 17:50:48 437.445
RS-15 27 Apr 17:46:35 17:55:59 30° 332° (NNW) 18:05:29 29.354- 29.394
DANDE 27 Apr 17:57:13 18:00:38 64° 96° (E) 18:05:14 436.750
ISS 27 Apr 18:03:26 18:06:40 58° 32° (NNE) 18:09:52 145.825
Cosmos 2499 27 Apr 18:17:29 18:25:20 38° 88° (E) 18:33:08 435.465 / 435.565
JAS-2 27 Apr 18:25:09 18:30:31 19° 274° (W) 18:35:22 435.910
MOZHAYETS 4 27 Apr 18:26:14 18:30:48 67° 285° (WNW) 18:35:20
PHONESAT 2.4 27 Apr 18:32:12 18:35:43 57° 166° (SSE) 18:39:16 2401.200-2431.200
CUBESAT XI-V 27 Apr 18:34:06 18:35:18 11° 87° (E) 18:36:48 437.345
CUTE-I 27 Apr 18:35:14 18:40:27 61° 73° (ENE) 18:45:43 437.470
SO-50 27 Apr 18:38:53 18:40:11 11° 31° (NNE) 18:41:39 436.795
Cubesat XI-IV 27 Apr 18:45:26 18:50:44 76° 75° (ENE) 18:56:05 437.490
CUSAT 1 27 Apr 18:47:00 18:50:22 26° 294° (WNW) 18:54:35 437.405
AO-7 27 Apr 18:57:13 18:59:41 11° 277° (W) 19:01:23 29.400- 29.500
GONETS M04 27 Apr 19:01:27 19:08:44 27° 295° (WNW) 19:15:48
PCSat 27 Apr 19:15:44 19:19:42 20° 253° (WSW) 19:23:28 145.827
AUBIESAT-1 27 Apr 19:15:58 19:18:54 20° 96° (E) 19:21:45 437.475
VERMONT LUNAR 27 Apr 19:20:12 19:23:35 76° 183° (S) 19:26:58 437.305
STRAND 1 27 Apr 19:30:19 19:34:08 22° 92° (E) 19:38:05 437.568
BRITE-PL 27 Apr 19:33:33 19:35:05 12° 63° (ENE) 19:36:52 437.365/2234.400
ISS 27 Apr 19:40:38 19:42:44 16° 228° (SW) 19:44:46 145.825
PRISM 27 Apr 19:45:32 19:49:19 35° 98° (E) 19:53:06 437.425
RS-15 27 Apr 20:05:21 20:13:22 21° 6° (N) 20:21:41 29.354- 29.394
CUBESAT XI-V 27 Apr 20:08:44 20:13:21 71° 284° (WNW) 20:17:57 437.345
M-CUBED/EXP-1 PRIME 27 Apr 20:09:30 20:13:41 80° 290° (WNW) 20:17:28 437.505
Cosmos 2499 27 Apr 20:09:50 20:18:22 49° 285° (WNW) 20:26:36 435.465 / 435.565
PHONESAT 2.4 27 Apr 20:10:18 20:13:53 79° 185° (S) 20:17:29 2401.200-2431.200
HO-68 27 Apr 20:12:54 20:19:11 35° 63° (ENE) 20:25:35 435.675
SO-50 27 Apr 20:17:06 20:21:56 51° 52° (NE) 20:26:45 436.795
CUTE-I 27 Apr 20:17:33 20:21:03 17° 270° (W) 20:24:18 437.470
Cubesat XI-IV 27 Apr 20:28:54 20:31:32 13° 272° (W) 20:33:52 437.490
SEEDS 27 Apr 20:31:41 20:34:44 20° 68° (ENE) 20:37:55 437.485
CANX-2 27 Apr 20:42:58 20:46:52 34° 71° (ENE) 20:50:48 2200.000
AAUSAT CUBESAT 2 27 Apr 20:43:33 20:46:27 19° 67° (ENE) 20:49:28 437.432
GOMX 1 27 Apr 20:44:59 20:49:00 44° 72° (ENE) 20:53:15 467.674
AUBIESAT-1 27 Apr 20:50:10 20:53:50 31° 296° (WNW) 20:57:11 437.475
CUTE 1.7 + AOD 2 27 Apr 20:51:39 20:55:38 38° 72° (ENE) 20:59:40 437.475
YUBILEINY 27 Apr 20:54:32 21:00:21 20° 60° (ENE) 21:06:31 435.215
VERMONT LUNAR 27 Apr 20:57:45 21:00:51 34° 201° (SSW) 21:03:58 437.305
STRAND 1 27 Apr 21:08:44 21:13:35 45° 290° (WNW) 21:18:24 437.568
BRITE-PL 27 Apr 21:09:01 21:13:07 61° 260° (W) 21:17:25 437.365/2234.400
DOVE 4 27 Apr 21:10:26 21:14:36 56° 74° (ENE) 21:19:04 437.250
PRISM 27 Apr 21:21:38 21:24:34 19° 293° (WNW) 21:27:22 437.425
CUBEBUG 2 27 Apr 21:23:03 21:26:20 21° 67° (ENE) 21:29:50 437.445
COMPASS 1 27 Apr 21:36:49 21:41:03 84° 78° (ENE) 21:45:20 437.405
CINEMA 3 27 Apr 21:37:55 21:42:11 56° 73° (ENE) 21:46:42 145.822/145.860
DELFI C3 27 Apr 21:39:00 21:42:20 25° 70° (ENE) 21:45:46 145.870
O/OREOS (USA 219) 27 Apr 21:42:41 21:45:49 19° 102° (ESE) 21:49:06 437.305
UWE-3 27 Apr 21:43:52 21:47:36 28° 69° (ENE) 21:51:30 435.000/436.395/437.385
FUNcube-1 27 Apr 21:47:34 21:51:04 24° 68° (ENE) 21:54:44 145.935
PHONESAT 2.4 27 Apr 21:48:34 21:51:59 41° 199° (SSW) 21:55:22 2401.200-2431.200
UKube-1 27 Apr 21:50:18 21:52:53 16° 65° (ENE) 21:55:38 .
HUMSAT D 27 Apr 21:52:10 21:54:08 13° 65° (ENE) 21:56:20 437.325/437.525
SO-50 27 Apr 21:58:27 22:02:11 21° 249° (WSW) 22:05:45 436.795
HO-68 27 Apr 21:59:50 22:06:45 47° 261° (W) 22:13:39 435.675
SEEDS 27 Apr 22:06:22 22:10:20 36° 264° (W) 22:14:18 437.485
Oscar 11 27 Apr 22:07:00 22:11:20 73° 76° (ENE) 22:15:43 145.826/435.025
ZACube-1 27 Apr 22:13:08 22:17:18 46° 72° (ENE) 22:21:37 437.345
50 SAT 27 Apr 22:16:43 22:18:48 14° 66° (ENE) 22:21:04 437.505
AAUSAT CUBESAT 2 27 Apr 22:17:53 22:21:50 38° 263° (W) 22:25:47 437.432
RS-15 27 Apr 22:19:31 22:30:05 41° 39° (NE) 22:41:12 29.354- 29.394
CANX-2 27 Apr 22:19:36 22:22:54 21° 268° (W) 22:26:07 2200.000
GOMX 1 27 Apr 22:24:56 22:27:32 15° 271° (W) 22:30:04 467.674
VELOX 1 27 Apr 22:26:15 22:29:18 19° 66° (ENE) 22:32:29 145.980
CUTE 1.7 + AOD 2 27 Apr 22:28:41 22:31:44 18° 269° (W) 22:34:41 437.475
Cosmos 2491 27 Apr 22:40:13 22:48:11 43° 88° (E) 22:56:20 435.465 / 435.565
AISAT 27 Apr 22:44:13 22:48:01 30° 69° (ENE) 22:51:54 437.250
DX 1 27 Apr 22:44:37 22:48:53 65° 74° (ENE) 22:53:12 434.975-435.025
YUBILEINY 27 Apr 22:49:47 22:58:36 88° 263° (W) 23:07:19 435.215
DOVE 4 27 Apr 22:50:54 22:52:57 13° 273° (W) 22:54:48 437.250
CUBEBUG 2 27 Apr 22:58:44 23:02:49 37° 264° (W) 23:07:01 437.445
ANTELSAT 27 Apr 23:01:56 23:05:01 18° 90° (E) 23:08:14 437.575/2403.000
DELFI C3 27 Apr 23:14:01 23:17:26 25° 266° (W) 23:20:49 145.870
CINEMA 3 27 Apr 23:17:38 23:19:55 13° 273° (W) 23:22:01 145.822/145.860
UWE-3 27 Apr 23:20:21 23:24:07 27° 266° (W) 23:27:55 435.000/436.395/437.385
O/OREOS (USA 219) 27 Apr 23:20:38 23:24:59 42° 298° (WNW) 23:29:19 437.305
FUNcube-1 27 Apr 23:23:23 23:27:17 31° 265° (W) 23:31:14 145.935
UKube-1 27 Apr 23:24:31 23:28:41 48° 260° (W) 23:32:53 .
NANOSAT C BR1 27 Apr 23:24:47 23:26:43 13° 89° (E) 23:28:52 145.865
HUMSAT D 27 Apr 23:25:17 23:29:27 58° 260° (W) 23:33:43 437.325/437.525
PHONESAT 2.4 27 Apr 23:28:26 23:29:41 11° 214° (SSW) 23:30:50 2401.200-2431.200
POPSAT HIP 1 27 Apr 23:28:43 23:31:05 15° 90° (E) 23:33:37 437.405
ESTCUBE 1 27 Apr 23:30:45 23:35:06 50° 73° (ENE) 23:39:29 437.505/2401.250
SPROUT 27 Apr 23:37:13 23:39:21 14° 65° (ENE) 23:41:40 437.525
BUGSAT 1 27 Apr 23:41:00 23:42:57 13° 90° (E) 23:45:09 437.445
50 SAT 27 Apr 23:49:23 23:53:15 47° 261° (W) 23:57:10 437.505
TIGRISAT 27 Apr 23:49:54 23:54:32 54° 99° (E) 23:59:04 435.000
ZACube-1 27 Apr 23:51:09 23:53:59 16° 270° (W) 23:56:42 437.345
UNISAT 6 27 Apr 23:55:15 23:59:57 64° 101° (E) 00:04:33 437.425
Cosmos 2504 27 Apr 23:55:45 00:01:55 25° 64° (ENE) 00:07:59 435.465 / 435.565
DUCHIFAT 1 27 Apr 23:56:33 00:00:17 29° 95° (E) 00:04:03 145.980
POLYITAN 1 27 Apr 23:58:26 00:02:19 32° 96° (E) 00:06:13 437.675
CUBEBUG 1 27 Apr 23:59:33 00:03:52 90° 256° (WSW) 00:08:13 437.445
VELOX 1 28 Apr 00:01:28 00:05:37 40° 262° (W) 00:09:46 145.980
QB50P1 28 Apr 00:15:20 00:19:31 49° 99° (E) 00:23:41 145.935-145.965
AISAT 28 Apr 00:20:59 00:24:39 25° 266° (W) 00:28:14 437.250
AIST 1 28 Apr 00:22:38 00:25:50 21° 89° (E) 00:29:09
DX 1 28 Apr 00:24:19 00:25:41 11° 272° (W) 00:26:44 434.975-435.025
TISAT 1 28 Apr 00:31:13 00:35:07 41° 72° (ENE) 00:39:06 437.305
RS-15 28 Apr 00:31:59 00:43:29 71° 243° (WSW) 00:55:25 29.354- 29.394
Cosmos 2491 28 Apr 00:36:57 00:45:08 42° 288° (WNW) 00:53:17 435.465 / 435.565
ANTELSAT 28 Apr 00:37:35 00:42:07 47° 288° (WNW) 00:46:33 437.575/2403.000
BEESAT 28 Apr 00:41:31 00:41:58 10° 60° (ENE) 00:42:42 436.000
QB50P2 28 Apr 00:42:15 00:46:35 81° 282° (WNW) 00:50:52 145.880/145.840
SWISSCUBE 28 Apr 00:43:13 00:44:50 12° 61° (ENE) 00:46:41 437.505
YUBILEINY 28 Apr 00:48:58 00:54:17 17° 281° (WNW) 00:59:05 435.215
NANOSAT C BR1 28 Apr 00:58:45 01:02:57 54° 286° (WNW) 01:07:07 145.865
POPSAT HIP 1 28 Apr 01:03:07 01:07:17 48° 287° (WNW) 01:11:25 437.405
ESTCUBE 1 28 Apr 01:09:34 01:12:20 15° 270° (W) 01:14:55 437.505/2401.250
SPROUT 28 Apr 01:10:50 01:15:01 55° 260° (W) 01:19:15 437.525
BUGSAT 1 28 Apr 01:14:44 01:18:47 50° 287° (WNW) 01:22:50 437.445
TIGRISAT 28 Apr 01:27:48 01:30:52 17° 295° (WNW) 01:33:44 435.000
DUCHIFAT 1 28 Apr 01:32:30 01:36:01 24° 291° (WNW) 01:39:26 145.980
UNISAT 6 28 Apr 01:33:36 01:36:15 15° 296° (WNW) 01:38:41 437.425
POLYITAN 1 28 Apr 01:34:39 01:38:05 23° 292° (WNW) 01:41:25 437.675
ITUPSAT 1 28 Apr 01:45:28 01:49:58 43° 71° (ENE) 01:54:30 437.325
Cosmos 2504 28 Apr 01:48:17 01:56:10 65° 267° (W) 02:03:27 435.465 / 435.565
QB50P1 28 Apr 01:52:23 01:55:02 16° 295° (WNW) 01:57:31 145.935-145.965
AIST 1 28 Apr 01:59:32 02:03:22 30° 285° (WNW) 02:07:08
TISAT 1 28 Apr 02:08:25 02:11:10 16° 269° (W) 02:13:45 437.305
BEESAT 28 Apr 02:14:21 02:19:08 86° 74° (ENE) 02:23:57 436.000
SWISSCUBE 28 Apr 02:17:19 02:22:06 82° 259° (WSW) 02:26:54 437.505
STARS 28 Apr 02:21:13 02:22:42 12° 63° (ENE) 02:24:23 437.465
BEESAT 3 28 Apr 02:42:51 02:46:50 56° 119° (ESE) 02:50:53 437.485
BEESAT 2 28 Apr 02:47:32 02:51:31 52° 118° (ESE) 02:55:33 435.950
RS-15 28 Apr 02:47:51 02:54:17 15° 261° (W) 02:59:48 29.354- 29.394
Gurwin Techsat 1B 28 Apr 02:49:18 02:52:39 17° 90° (E) 02:56:13 435.225
DANDE 28 Apr 02:53:57 02:57:39 14° 59° (ENE) 03:02:05 436.750
Oscar 19 28 Apr 03:02:39 03:07:54 85° 102° (ESE) 03:13:06 437.125/150
KKS-1 28 Apr 03:05:55 03:10:14 54° 73° (ENE) 03:14:36 437.445
GONETS M04 28 Apr 03:12:58 03:20:44 34° 69° (ENE) 03:28:37
ITUPSAT 1 28 Apr 03:24:30 03:28:05 20° 268° (W) 03:31:33 437.325
CUSAT 1 28 Apr 03:38:49 03:45:46 36° 70° (ENE) 03:53:21 437.405
ITAMSAT 1 28 Apr 03:42:58 03:48:07 62° 101° (E) 03:53:15 435.822/435.867
MOZHAYETS 4 28 Apr 03:53:52 03:55:48 13° 63° (ENE) 03:57:55
STARS 28 Apr 03:54:15 03:58:37 72° 258° (WSW) 04:03:02 437.465
AIST 2 28 Apr 04:03:36 04:07:51 79° 303° (WNW) 04:12:10 435.215
Cosmos 2499 28 Apr 04:12:30 04:13:55 11° 53° (NE) 04:15:52 435.465 / 435.565
BEESAT 3 28 Apr 04:22:24 04:25:13 17° 318° (NW) 04:27:58 437.485
BEESAT 2 28 Apr 04:26:58 04:29:57 18° 317° (NW) 04:32:52 435.950
Gurwin Techsat 1B 28 Apr 04:27:52 04:33:06 59° 287° (WNW) 04:38:18 435.225
